sat.trackr.live / text

‹ back to catalog

2025-012B

NORAD 62726 · 2025-012B

PAYLOAD ACTIVE UNKNOWN

§ Identity

Operator
Country
PRC
Launch date
2025-01-17
Launch site
JSC
Launch vehicle
Mass (kg)
RCS (m²)

External: N2YO · Heavens-Above · Gunter

§ Orbital elements

Epoch: 2026-09-22T17:24:13.124160Z

Period
94.62 min
Inclination
97.4152°
Eccentricity
0.0007360
Mean motion
15.21956953 rev/d
Perigee alt
494.9 km
Apogee alt
505.0 km
Semi-major
6,878.1 km
B*
1.3763e-4
RAAN
337.4222°
Arg perigee
299.2340°
Mean anomaly
60.8160°
Rev number
9,308

§ Raw data

2025-012B1 62726U 25012B   26265.72515190  .00003070  00000+0  13763-3 0  99962 62726  97.4152 337.4222 0007360 299.2340  60.8160 15.21956953 93088

JSON: /api/v1/satellites/62726 · /tle

For live sub-satellite position, see the globe view (requires WebGL).

§ Visibility from observer

Set your observer location to see the next 7 days of passes ≥ 10°. The values pass through the URL so the page stays shareable.

No JS? Fill the form by hand. The geolocation button needs JavaScript.

§ Radio — SatNOGS DB

ModeDescriptionDownlinkUplink
FM S-band telemetry 2.238 GHz

1 transmitter · refreshed weekly from db.satnogs.org